This is the latest recevied weather packets stored in our database for station/object W1GK. If no packets are shown the sender has not sent any weather packets the latest 10 day(s).
| Time | Temp. | Humidity | Pressure | Rain* | Wind** | Luminosity | Snow |
|---|---|---|---|---|---|---|---|
| 1778017199 | 25° C | 19% | 1009.9 hPa | 0 mm | - | 860 W/m² | - |
| 1778016600 | 25° C | 20% | 1010.1 hPa | 0 mm | - | 870 W/m² | - |
| 1778015999 | 25° C | 20% | 1010.1 hPa | 0 mm | - | 853 W/m² | - |
| 1778015400 | 25.56° C | 19% | 1010.3 hPa | 0 mm | - | 462 W/m² | - |
| 1778014803 | 25.56° C | 18% | 1010.3 hPa | 0 mm | - | 188 W/m² | - |
| 1778014201 | 25° C | 20% | 1010.3 hPa | 0 mm | - | 163 W/m² | - |
| 1778013601 | 24.44° C | 21% | 1010.4 hPa | 0 mm | - | 536 W/m² | - |
| 1778013001 | 23.89° C | 20% | 1010.3 hPa | 0 mm | - | 842 W/m² | - |
| 1778012402 | 23.89° C | 21% | 1010.4 hPa | 0 mm | - | 960 W/m² | - |
| 1778011801 | 23.89° C | 21% | 1010.5 hPa | 0 mm | - | 974 W/m² | - |
| 1778011203 | 23.33° C | 21% | 1010.6 hPa | 0 mm | - | 1034 W/m² | - |
| 1778010599 | 22.78° C | 23% | 1010.7 hPa | 0 mm | - | 1206 W/m² | - |
| 1778010000 | 22.22° C | 23% | 1010.9 hPa | 0 mm | - | 410 W/m² | - |
| 1778009400 | 22.22° C | 25% | 1010.9 hPa | 0 mm | - | 394 W/m² | - |
| 1778008800 | 22.22° C | 24% | 1011 hPa | 0 mm | - | 364 W/m² | - |
| 1778008200 | 21.67° C | 23% | 1011 hPa | 0 mm | - | 870 W/m² | - |
| 1778007602 | 21.67° C | 25% | 1011 hPa | 0 mm | - | 425 W/m² | - |
| 1778006998 | 21.67° C | 25% | 1011.1 hPa | 0 mm | - | 287 W/m² | - |
| 1778006400 | 21.11° C | 26% | 1011.2 hPa | 0 mm | - | 1058 W/m² | - |
| 1778005798 | 21.11° C | 26% | 1011.2 hPa | 0 mm | - | 309 W/m² | - |
| 1778005198 | 20.56° C | 26% | 1011.2 hPa | 0 mm | - | 265 W/m² | - |
| 1778004598 | 21.11° C | 26% | 1011.2 hPa | 0 mm | - | 262 W/m² | - |
| 1778003998 | 21.11° C | 26% | 1011.2 hPa | 0 mm | - | 854 W/m² | - |
| 1778003398 | 21.67° C | 27% | 1011.1 hPa | 0 mm | - | 861 W/m² | - |
| 1778002799 | 20.56° C | 28% | 1011.1 hPa | 0 mm | - | 870 W/m² | - |
* Rain latest hour (hover to see other rain measurements)
** Current wind speed in m/s (hover to see current wind gust speed)